TITAN 3C TRANSTAGE DEB, 20672

Orbit data source: Space-Track

TITAN 3C TRANSTAGE DEB, 20672 is space debris in HEO originally from a launch on Tue, 21 Dec 1965 UTC launched from the Air Force Eastern Test Range (AFETR). Debris objects in space refer to the collection of defunct objects orbiting the Earth. Examples of debris include non-operational satellites, rocket bodies, and fragments generated from explosions, collisions, or faulty payload assembly.

Loading next visibility...
Identifier
20672, 1965-108AD
Orbit
HEO
Country
Flag of USUS
Related business
Manufacturer
Unknown
Mission
Spacecraft
Bus & Motor
Unknown
Mass
Unknown
Launch date (UTC)
1965-12-21 (60 years ago)
Launch vehicle
Unknown
Launch site
Air Force Eastern Test Range (AFETR)
Object type
Payload
Rocket body
Debris
Shape & HBR
Unknown shape, 0.1 m
Radar Cross Section
Small (<0.1 m²)

Expand to show TLE details & history
Last TLE update: 21 hours ago

TLE from 21 hours ago
0 TITAN 3C TRANSTAGE DEB
1 20672U 65108AD  25298.26949821 -.00000106  00000-0 -34843-3 0  9998
2 20672  27.1392 309.5400 6798771 146.2112 352.6875  2.70043180 41170
Epoch: 2025-10-25T06:28Z
TLE epoch observation values (Epoch: 2025-10-25T06:28:04.645Z)
Latitude
26.85868°
Longitude
-80.90691°
Altitude
1,629.074 km
Speed
9.017 km/s
True Right ascension
03h 20m 03s
True Declination
26° 44' 07"
Sunlit
Object was in full shadow at epoch
Visualization orbit readout
Latitude
Unknown
Longitude
Unknown
Altitude
Unknown
Speed
Unknown
Apparent Right ascension
Unknown
Apparent Declination
Unknown
Sunlit
N/A
Visualization observer readout
Local Sidereal Time
22:59:15
Azimuth
Unknown
Elevation
Unknown
Doppler factor
Unknown
Orbital elements
Apogee altitude
30,220.181 km
Perigee altitude
596.159 km
Semi-major axis
21,786.307 km
Eccentricity
0.67988
Inclination
27.1392°
RAAN
309.54°
Arg. of periapsis
146.2112°
True anomaly
312.50685°
Mean anomaly
352.6875°
Eccentric anomaly
338.25752°
Mean motion
0.67494 °/min
Orbital period
533.38 mins
BSTAR
-0.00034843
Loading maneuver chart data...
Computing Atmospheric mass density...

Documentation

Showing up to 5 results
|